Regional Weather Roundup
Issued by NWS

Home | Current Version | Previous Version | Text Only | Print | Product List | Glossary On
Versions: 1 2 3 4 5 6 7 8 9 10 11 12 13 14 15 16 17 18 19 20 21 22 23 24 25 26 27 28 29 30 31 32 33 34 35 36 37 38 39 40 41 42 43 44 45 46 47 48 49 50
000
ASUS43 KLSX 161659
RWRMO

WEATHER SUMMARY FOR MISSOURI
NATIONAL WEATHER SERVICE SPRINGFIELD MO
1200 PM CDT WED APR 16 2014

NOTE: "FAIR" INDICATES FEW OR NO CLOUDS BELOW 12,000 FEET WITH NO
       SIGNIFICANT WEATHER AND/OR OBSTRUCTIONS TO VISIBILITY.
       CURRENT SKY AND/OR WEATHER CONDITIONS ARE NOT AVAILABLE FOR
       CHILLICOTHE AND FARMINGTON.

MOZ001>031-035>038-043-044-053-054-161800-
...NORTHERN AND WESTERN MISSOURI...

CITY           SKY/WX    TMP DP  RH WIND       PRES   REMARKS
KANSAS CTY INT PTSUNNY   60  29  30 S31G40    29.91F
KANSAS C DTWN  PTSUNNY   61  31  32 S22G36    29.94F
LEE`S SUMMIT   SUNNY     58  30  34 S26G38    29.96F
ST JOSEPH      PTSUNNY   61  30  31 S24G44    29.87F
CHILLICOTHE      N/A     59  33  37 S18G26    29.98F
KIRKSVILLE     MOSUNNY   60  29  30 S28G35    30.03F

$$
MOZ066>068-077>081-088>096-101>105-161800-
...SOUTHWEST MISSOURI...

CITY           SKY/WX    TMP DP  RH WIND       PRES   REMARKS
SPRINGFIELD    MOSUNNY   54  31  41 S25G37    30.08F
JOPLIN         SUNNY     59  29  31 S21G33    30.03F

$$
MOZ032>034-039>042-045>050-055>058-069>072-161800-
...CENTRAL MISSOURI...

CITY           SKY/WX    TMP DP  RH WIND       PRES   REMARKS
COLUMBIA       SUNNY     56  30  37 S25G35    30.10F
JEFFERSON CITY SUNNY     54  28  36 SE22G31   30.11F
ROLLA          SUNNY     52  29  41 S18G26    30.14F
SEDALIA        SUNNY     59  31  34 S25G35    30.05S
OSAGE BEACH    SUNNY     55  27  33 S21G33    30.13F

$$
MOZ051-052-059>065-161800-
...EAST CENTRAL MISSOURI...

CITY           SKY/WX    TMP DP  RH WIND       PRES   REMARKS
ST LOUIS INTL  PTSUNNY   53  25  33 S23G31    30.23F
SPIRIT OF STL  SUNNY     51  23  33 S17G26    30.20F
ST CHARLES     SUNNY     51  29  42 S24G32    30.22F

$$
MOZ072>076-082>087-097>100-106>115-161800-
...SOUTH CENTRAL AND SOUTHEAST MISSOURI...

CITY           SKY/WX    TMP DP  RH WIND       PRES   REMARKS
CAPE GIRARDEAU SUNNY     50  29  44 SE10G20   30.29F
FARMINGTON     SUNNY     52  27  37 SE18      30.25F
POPLAR BLUFF   SUNNY     49  26  41 S13       30.28F
WEST PLAINS    SUNNY     49  24  37 SE18G26   30.22F

$$



USA.gov is the U.S. government's official web portal to all federal, state and local government web resources and services.